Location: Luz Observatory
(34.5000°N, 117.2833°W)
Time: 18:23:03
(UTC-07:00)

Okean 3 Rocket - Visible Passes

Search period start: 29 August 2016 00:00
Search period end: 08 September 2016 00:00
Orbit: 614 x 646 km, 82.5° (Epoch: 28 August)

Date Brightness Start Highest point End Pass type
(mag) Time Alt. Az. Time Alt. Az. Time Alt. Az.
30 Aug 6.7 22:46:10 10° N 22:46:10 10° N 22:46:10 10° N visible
02 Sep 6.3 22:10:57 10° N 22:11:23 13° N 22:11:23 13° N visible
03 Sep 6.5 22:31:51 10° NNW 22:32:17 13° NNW 22:32:17 13° NNW visible
04 Sep 6.1 21:15:42 10° NNE 21:15:48 10° NNE 21:15:48 10° NNE visible
05 Sep 5.9 21:35:50 10° N 21:36:45 15° NNE 21:36:45 15° NNE visible
06 Sep 6.0 21:56:32 10° N 21:57:42 18° N 21:57:42 18° N visible
07 Sep 6.0 20:41:07 10° NE 20:41:17 10° NE 20:41:17 10° NE visible
07 Sep 6.3 22:17:41 10° NNW 22:18:41 16° NNW 22:18:41 16° NNW visible
